Regional Weather Roundup
Issued by NWS Grand Forks, ND

Home | Current Version | Previous Version | Text Only | Print | Product List | Glossary On
Versions: 1 2 3 4 5 6 7 8 9 10 11 12 13 14 15 16 17 18 19 20 21 22 23 24 25 26 27 28 29 30 31 32 33 34 35 36 37 38 39 40 41 42 43 44 45 46 47 48 49 50
000
ASUS43 KFGF 300810
RWRFGF
PRAIRIE TO PINES  WEATHER ROUNDUP
NATIONAL WEATHER SERVICE EASTERN NORTH DAKOTA/GRAND FORKS ND
300 AM CDT SAT JUL 30 2016

 **SATELLITE DATA USED TO AUGMENT SKY COVER AT AUTOMATED STATIONS**
 *****  WEATHER ACROSS EASTERN NORTH DAKOTA  *****

CITY           SKY/WX    TMP DP  RH WIND       PRES   REMARKS
GRAND FORKS    PTCLDY    62  57  83 SE3       29.96F
GRAND FRKS AFB CLOUDY    62  58  87 SW5       29.97S
DEVILS LAKE    PTCLDY    66  62  87 SE7       29.97S
FARGO          CLOUDY    69  61  75 S10       29.98F
WAHPETON ARPT  CLOUDY    63  59  88 SE3       30.00F
$$

 ***** WEATHER ACROSS CENTRAL AND WESTERN NORTH DAKOTA  *****

CITY           SKY/WX    TMP DP  RH WIND       PRES   REMARKS
BISMARCK       CLOUDY    65  61  87 SE7       29.93F
MINOT          PTCLDY    67  61  81 S3        29.92F
JAMESTOWN      CLEAR     62  60  93 S7        29.97F
MINOT AFB      PTCLDY    57  56  94 S2        29.91F
GARRISON         N/A     64  64 100 E5        29.93F
WILLISTON      CLEAR     61  55  81 CALM      29.93F
DICKINSON      CLEAR     58  56  93 CALM      29.92F
HETTINGER      CLEAR     62  55  77 CALM      29.96F
$$

 *****  OTHER AIRPORT OBSERVATIONS IN OUR AREA  *****

CITY           SKY/WX    TMP DP  RH WIND       PRES   REMARKS
WALHALLA       NOT AVBL
GRAFTON AIRPOR FAIR      59  59 100 S5        29.98S
VALLEY CITY AR PTSUNNY   63  63 100 S8        30.00F
CANDO          NOT AVBL
CAVALIER APRT  FAIR      57  57 100 S3        29.96S
GWINNER        FAIR      63  61  94 SW6       30.00S
SHEYENNE NWR     N/A     63  60  91 S5        29.95S
ROLLA          FAIR      57  57 100 CALM      29.97S
 ***** THE ABOVE OBSERVATIONS ARE NON NWS ARE NOT QUALITY
       CONTROLLED AND MAY MIS-REPORT RAIN FOR SNOW...
$$

  *****  WEATHER ACROSS NORTHERN MINNESOTA  *****

CITY           SKY/WX    TMP DP  RH WIND       PRES   REMARKS
FLAG ISLAND    CLEAR     70  59  68 CALM      29.97F
WARROAD        NOT AVBL
ROSEAU         CLEAR     57  52  82 S3        29.99S
HALLOCK        CLEAR     57  54  88 SE7       29.96F
THF RVR FALLS  CLOUDY    56  54  93 S5        30.00F
BAUDETTE       CLEAR     59  55  87 S7        30.00F
WASKISH        PTCLDY    59  55  88 SE5       30.01S
CROOKSTON      PTCLDY    61  57  88 SE5       29.99S
GREENBUSH NDAW   N/A     54  52  94 S2          N/A
$$
  *****  WEATHER ACROSS CENTRAL AND WEST MINNESOTA  *****

CITY           SKY/WX    TMP DP  RH WIND       PRES   REMARKS
FOSSTON        CLOUDY    55  46  71 CALM      30.01F
BEMIDJI        MOCLDY    63  60  91 S3        30.03S
PARK RAPIDS    PTCLDY    63  58  83 SE7       30.04S
ELBOW LAKE     FAIR      61  59  94 SE6       30.03F
WADENA         NOT AVBL
DETROIT LAKES  CLEAR     64  63  94 S6        30.03F
MOORHEAD       CLOUDY    66  63  88 S7        30.00S
FERGUS FALLS   CLOUDY    64  63  94 S7        30.03F
MORRIS MN      CLEAR     61  57  88 CALM      30.02F
STAPLES        CLEAR     59  55  88 CALM      30.04F
$$
  *****  WEATHER ELSEWHERE ACROSS MINNESOTA  *****

CITY           SKY/WX    TMP DP  RH WIND       PRES   REMARKS
DULUTH         PTCLDY    52  50  93 CALM      30.06F
INTRNTL FALLS  CLEAR     59  53  80 SE3       30.03S
ELY            CLEAR     48  46  93 CALM      30.07F
CLOQUET        CLOUDY    48  46  93 CALM      30.06F
WHEATON        NOT AVBL
BRAINERD       PTCLDY    59  56  89 CALM      30.05S
HIBBING        PTCLDY    46  46 100 CALM      30.07S FOG
ALEXANDRIA     CLEAR     62  57  83 S5        30.05F
SAINT CLOUD    CLEAR     54  54 100 CALM      30.04S
MINNEAPOLIS    MOCLDY    69  58  67 NE5       30.02F
$$

  *****  WEATHER ACROSS SOUTH DAKOTA  *****

CITY           SKY/WX    TMP DP  RH WIND       PRES   REMARKS
SIOUX FALLS    CLEAR     58  55  90 CALM      30.05S
BROOKINGS      PTCLDY    59  56  89 SE8       30.05R
WATERTOWN      MOCLDY    62  55  77 S7        30.03F
HURON          CLEAR     63  55  75 S12       30.01S
SISSETON         N/A     65  59  81 SW8       29.99F
ABERDEEN       CLOUDY    65  59  81 S7        29.99F
MITCHELL       CLEAR     63  57  81 SE9       30.03S
PIERRE         MOCLDY    66  55  67 SE14      29.97R
MOBRIDGE       PTCLDY    68  57  68 S10       29.95S
RAPID CITY     CLEAR     57  54  89 CALM      29.98F
$$

  *****  SOME WEATHER IN NEARBY STATES *****

CITY           SKY/WX    TMP DP  RH WIND       PRES   REMARKS
GLASGOW MT     CLEAR     61  54  77 E8        29.91F
GREAT FALLS MT CLEAR     63  49  60 SE3       29.89F
CHEYENNE WY    CLOUDY    59  55  87 SW3       30.16F
SCOTTSBLUFF NE PTCLDY    61  57  87 NE5       30.04F
OMAHA NE       PTCLDY    66  61  84 CALM      30.02F
DES MOINES IA  PTCLDY    68  64  87 CALM      29.99S
DAVENPORT IA   CLOUDY    67  65  93 NE5       29.96S
CHICAGO IL     MOCLDY    70  66  87 N7        29.93S
EAU CLAIRE WI  CLEAR     61  61 100 NE5       30.03S
LA CROSSE WI   CLOUDY    67  65  93 CALM      30.01S
$$

  *****  SOME NATIONAL WEATHER *****

CITY           SKY/WX    TMP DP  RH WIND       PRES   REMARKS
LA GUARDIA NY  PTCLDY    78  70  76 SW5       29.93S
RALEIGH NC     PTCLDY    75  72  90 CALM      29.93F
ATLANTA GA     PTCLDY    75  74  96 CALM      29.99F
NEW ORLEANS LA PTCLDY    80  75  84 W3        30.01S
OKLAHOMA CITY  CLOUDY    73  69  87 S3        29.98F
ALBUQUERQUE NM CLOUDY    71  56  58 NE6       30.17F
SALT LAKE CITY MOCLDY    82  41  23 SE14      29.91F
LOS ANGELES CA CLEAR     71  61  70 VRB3      29.82S
BOISE ID       CLEAR     77  36  22 SE9       29.82S
SEATTLE WA     PTCLDY    67  58  72 W5        29.91R
$$

*** WEATHER ACROSS MANITOBA...SASKATCHEWAN AND ONTARIO ***
                ***ONTARIO***

CITY           SKY/WX    TMP DP  RH WIND       PRES   REMARKS
GERALDTON      CLEAR     50  48  93 SW3       30.07F
THUNDER BAY    CLEAR     50  48  93 W3        30.07S
SIOUX LOOKOUT  PTCLDY    54  54 100 SE3       30.01F
TORONTO        MOCLDY    68  52  56 NE7       30.02S
BIG TROUT LK   CLEAR     59  57  94 SW3       29.94S
PICKLE LAKE    NOT AVBL
DRYDEN         CLEAR     64  55  72 S6        30.01F
KENORA         PTCLDY    64  57  77 S5        29.99F
$$
                *** MANITOBA***

CITY           SKY/WX    TMP DP  RH WIND       PRES   REMARKS
BRANDON        MOCLDY    61  55  82 E2        29.92F
DAUPHIN        PTCLDY    64  57  77 SW8       29.87F
ISLAND LAKE    PTCLDY    63  61  94 VRB2      29.91S
PILOT MOUND      N/A     57  55  94 SE5         N/A
THE PAS        PTCLDY    61  59  94 SE7       29.81S
THOMPSON       LGT RAIN  61  61 100 E3        29.81F
WINNIPEG       CLEAR     61  55  82 S9        29.95S
LYNN LAKE      CLOUDY    61  59  94 MISG      29.82S
CHURCHILL      MOCLDY    50  45  81 SE10      29.97F
GILLAM         CLOUDY    54  50  87 E7G17     29.90F
$$
                ***SASKATCHEWAN***

CITY           SKY/WX    TMP DP  RH WIND       PRES   REMARKS
ESTEVAN        CLEAR     57  55  94 S3        29.92F
KINDERSLEY     CLEAR     61  57  88 S7        29.85S
LLOYDMINSTER   PTCLDY    63  55  77 S8        29.80F
PRINCE ALBERT  PTCLDY    54  54 100 NE2       29.81S FOG
REGINA         CLEAR     57  55  94 E6        29.89F
YORKTON        CLOUDY    63  59  88 S7        29.87F
N. BATTLEFORD  CLEAR     59  59 100 SE7       29.83F
LA RONGE       CLEAR     57  55  94 CALM      29.77S
SASKATOON      CLEAR     61  61 100 S6        29.85F
SWIFT CURRENT  CLEAR     57  55  94 S9        29.89F
$$
NOTE: THESE ARE AUTOMATED STATIONS WITH LIMITED QUALITY CONTROL
      "FAIR" INDICATES FEW OR NO CLOUDS BELOW 12,000 FEET WITH NO
      SIGNIFICANT WEATHER AND/OR OBSTRUCTIONS TO VISIBILITY.
      SKY/WX - SKY CONDITION AND SIGNIFICANT WEATHER.
      TMP - AIR TEMPERATURE.    DP   - DEWPOINT TEMPERATURE.
      RH  - RELATIVE HUMIDITY.  PRES - PRESSURE.
      HX  - HEAT INDEX.         WCI  - WIND CHILL INDEX.
$




USA.gov is the U.S. government's official web portal to all federal, state and local government web resources and services.